Flag for Mexico Weather past 2 weeks in Guadalajara, Jalisco, Mexico

Now
73 °F

Broken clouds.


Feels Like: 75 °F
Forecast: 49 / 74 °F
Wind: 7 mph from West

Location: Don Miguel / Guadalaj

Current Time: Dec 20, 2014 at 7:34:17 PM

Latest Report: Dec 20, 2014 at 5:44 PM


Visibility: 10 mi

Pressure: 29.84 "Hg

Humidity: 20%

Dew point: 30 °F

Location of GuadalajaraLocation

Historic Weather in Guadalajara — Graph

°F

Guadalajara temperature yesterday

Maximum temperature yesterday: 79 °F (at 2:49 PM)
Minimum temperature yesterday: 45 °F (at 6:54 AM)
Average temperature yesterday: 61 °F

Past Weeks' High & Low Weather Summary

 TemperatureHumidityPressure
High81 °F (Dec 20, 2:53 PM)100% (Dec 14, 9:13 AM)30.35 "Hg (Dec 14, 9:13 AM)
Low34 °F (Dec 14, 9:13 AM)18% (Dec 19, 3:52 PM)29.80 "Hg (Dec 18, 2:52 PM)
Average60 °F62%30.13 "Hg
* Reported Dec 5 5:49 PM — Dec 20 5:44 PM, Guadalajara, Weather by CustomWeather, © 2014

Note: Actual official high and low records may vary slightly from our data, if they occured in-between our weather recording intervals... More about our weather records

Advertising

Guadalajara weather history for previous 24 hours

 ConditionsComfort  
Time TempWeatherWind HumidityBarometerVisibility
5:44 PM
Dec 20
73 °FBroken clouds.7 mph20%29.84 "Hg10 mi
4:45 PM79 °FPartly sunny.16 mph20%30.07 "Hg10 mi
3:53 PM77 °FPartly sunny.7 mph19%30.07 "Hg10 mi
2:53 PM81 °FScattered clouds.12 mph18%29.80 "Hg10 mi
12:47 PM77 °FScattered clouds.6 mph30%30.14 "Hg8 mi
11:55 AM72 °FScattered clouds.3 mph38%29.91 "Hg8 mi
10:54 AM70 °FBroken clouds.No wind46%30.18 "Hg8 mi
8:45 AM54 °FPartly sunny.No wind72%29.97 "Hg8 mi
7:49 AM48 °FBroken clouds.No wind82%30.18 "Hg8 mi
6:47 AM46 °FPartly cloudy.No wind82%30.15 "Hg8 mi
5:46 AM46 °FPassing clouds.No wind82%29.92 "Hg10 mi
4:47 AM48 °FClear.No wind76%30.14 "Hg10 mi
3:52 AM48 °FClear.No wind76%30.14 "Hg10 mi
2:47 AM46 °FClear.No wind82%29.89 "Hg10 mi
1:50 AM48 °FClear.No wind76%30.15 "Hg10 mi
12:49 AM50 °FClear.No wind71%30.16 "Hg10 mi
11:46 PM
Dec 19
50 °FClear.No wind67%29.90 "Hg10 mi
10:50 PM54 °FClear.No wind63%30.16 "Hg10 mi
9:48 PM57 °FClear.No wind51%30.15 "Hg10 mi
Weather by CustomWeather, © 2014

See weather overviewHow to use our weather pages